DW8593 Weather Reports


time (UTC)temp
C
wind
direction
speed
KPH
gust
KPH
rain 1hr
cm
rain 24hr
cm
rain mn
cm
humidity
%
barometer
mb
20190426113829 18 248 9.7 17.7 0.00 0.00 0.00 51 970.5
20190426113329 18 203 17.7 17.7 0.00 0.00 0.00 51 970.4
20190426112829 18 270 0.0 6.4 0.00 0.00 0.00 51 970.5
20190426112329 18 270 9.7 11.3 0.00 0.00 0.00 51 970.5
20190426111829 18 203 6.4 12.9 0.00 0.00 0.00 51 970.6
20190426111329 18 180 12.9 12.9 0.00 0.00 0.00 50 970.5
20190426110829 19 248 9.7 11.3 0.00 0.00 0.00 50 970.6
20190426110329 20 180 1.6 20.9 0.00 0.00 0.00 49 970.6
20190426105829 20 180 0.0 12.9 0.00 0.00 0.00 49 970.4
20190426105329 20 203 0.0 9.7 0.00 0.00 0.00 48 970.4
20190426104829 20 225 0.0 11.3 0.00 0.00 0.00 48 970.3
20190426104329 20 270 11.3 16.1 0.00 0.00 0.00 48 970.3
20190426103829 20 180 0.0 11.3 0.00 0.00 0.00 48 970.1
20190426103329 20 248 11.3 11.3 0.00 0.00 0.00 48 970.1
20190426102829 20 225 0.0 3.2 0.00 0.00 0.00 48 970.1
20190426102329 20 225 9.7 9.7 0.00 0.00 0.00 47 970.0
20190426101829 21 248 9.7 9.7 0.00 0.00 0.00 47 970.0
20190426101329 21 180 0.0 11.3 0.00 0.00 0.00 47 970.0
20190426100829 21 203 11.3 12.9 0.00 0.00 0.00 49 970.0
20190426100329 20 180 3.2 12.9 0.00 0.00 0.00 49 970.1
20190426095829 20 203 12.9 12.9 0.00 0.00 0.00 49 970.0
20190426095329 20 225 0.0 11.3 0.00 0.00 0.00 50 970.0
20190426094829 20 158 11.3 11.3 0.00 0.00 0.00 49 970.0
20190426094329 20 225 0.0 20.9 0.00 0.00 0.00 49 969.9
20190426093829 20 225 20.9 20.9 0.00 0.00 0.00 48 969.9
20190426093329 20 180 0.0 9.7 0.00 0.00 0.00 49 969.9
20190426092829 20 180 9.7 9.7 0.00 0.00 0.00 48 969.8
20190426092329 20 203 11.3 11.3 0.00 0.00 0.00 48 969.7
20190426091829 20 203 0.0 1.6 0.00 0.00 0.00 47 969.7
20190426091329 20 135 0.0 0.0 0.00 0.00 0.00 47 969.7
20190426090829 20 203 0.0 11.3 0.00 0.00 0.00 47 969.5
20190426090329 20 180 11.3 12.9 0.00 0.00 0.00 47 969.5
20190426085830 20 203 12.9 12.9 0.00 0.00 0.00 49 969.4
20190426085329 20 158 0.0 0.0 0.00 0.00 0.00 49 969.4
20190426084829 19 203 0.0 9.7 0.00 0.00 0.00 48 969.2
20190426084329 19 180 9.7 9.7 0.00 0.00 0.00 48 969.2
20190426083829 19 203 0.0 8.0 0.00 0.00 0.00 48 969.0
20190426083329 20 158 0.0 6.4 0.00 0.00 0.00 48 969.1
20190426082829 20 158 6.4 6.4 0.00 0.00 0.00 47 969.0
20190426082329 20 203 0.0 0.0 0.00 0.00 0.00 47 968.8
20190426081829 20 158 0.0 0.0 0.00 0.00 0.00 46 968.8
20190426081329 20 180 0.0 11.3 0.00 0.00 0.00 45 968.7
20190426080829 19 158 3.2 8.0 0.00 0.00 0.00 43 968.5
20190426080330 19 113 8.0 8.0 0.00 0.00 0.00 43 968.3
20190426075829 19 113 3.2 12.9 0.00 0.00 0.00 43 968.3
20190426075329 18 113 0.0 12.9 0.00 0.00 0.00 43 968.2
20190426074829 18 113 8.0 9.7 0.00 0.00 0.00 43 968.2
20190426074329 18 90 8.0 8.0 0.00 0.00 0.00 43 968.2
20190426073829 18 113 3.2 11.3 0.00 0.00 0.00 43 968.0
20190426073331 18 90 11.3 12.9 0.00 0.00 0.00 43 968.0
20190426072829 18 68 12.9 16.1 0.00 0.00 0.00 43 968.0
20190426072329 18 113 6.4 11.3 0.00 0.00 0.00 43 968.0
20190426071829 18 68 9.7 12.9 0.00 0.00 0.00 44 968.0
20190426071329 18 113 12.9 12.9 0.00 0.00 0.00 44 968.0
20190426070829 18 113 12.9 12.9 0.00 0.00 0.00 44 968.1
20190426070329 18 90 12.9 12.9 0.00 0.00 0.00 44 968.0
20190426065829 18 90 9.7 12.9 0.00 0.00 0.00 44 968.0
20190426065329 18 113 9.7 11.3 0.00 0.00 0.00 44 968.2
20190426064829 17 90 9.7 14.5 0.00 0.00 0.00 44 968.2
20190426064329 17 68 14.5 14.5 0.00 0.00 0.00 44 968.2
20190426063829 17 113 9.7 9.7 0.00 0.00 0.00 44 968.2
20190426063329 17 113 9.7 11.3 0.00 0.00 0.00 44 968.2
20190426062829 17 113 11.3 11.3 0.00 0.00 0.00 44 968.2
20190426062329 17 135 11.3 12.9 0.00 0.00 0.00 44 968.3
20190426061829 17 113 9.7 12.9 0.00 0.00 0.00 43 968.3
20190426061329 17 113 12.9 12.9 0.00 0.00 0.00 43 968.2
20190426060829 17 90 9.7 12.9 0.00 0.00 0.00 43 968.2
20190426060329 17 113 12.9 12.9 0.00 0.00 0.00 43 968.0
20190426055829 17 90 12.9 12.9 0.00 0.00 0.00 43 968.0
20190426055329 17 68 12.9 12.9 0.00 0.00 0.00 43 968.1
20190426054829 17 90 11.3 11.3 0.00 0.00 0.00 43 968.1
20190426054329 17 113 11.3 14.5 0.00 0.00 0.00 43 968.1
20190426053829 17 113 12.9 12.9 0.00 0.00 0.00 43 968.0
20190426053329 17 90 9.7 12.9 0.00 0.00 0.00 43 968.1
20190426052829 17 113 12.9 12.9 0.00 0.00 0.00 42 968.1
20190426052329 17 113 0.0 1.6 0.00 0.00 0.00 42 968.2
20190426051829 17 90 1.6 11.3 0.00 0.00 0.00 42 968.2
20190426051329 17 90 9.7 12.9 0.00 0.00 0.00 42 968.1
20190426050829 17 90 0.0 9.7 0.00 0.00 0.00 42 968.0
20190426050329 17 113 9.7 9.7 0.00 0.00 0.00 42 968.0
20190426045829 17 135 12.9 12.9 0.00 0.00 0.00 42 968.1
20190426045329 17 113 11.3 11.3 0.00 0.00 0.00 42 968.1
20190426044829 17 90 6.4 6.4 0.00 0.00 0.00 42 968.3
20190426044329 17 90 11.3 11.3 0.00 0.00 0.00 42 968.1
20190426043829 17 90 9.7 12.9 0.00 0.00 0.00 42 968.2
20190426043329 17 113 0.0 8.0 0.00 0.00 0.00 42 968.2
20190426042829 17 113 6.4 11.3 0.00 0.00 0.00 42 968.2
20190426042329 17 113 0.0 0.0 0.00 0.00 0.00 42 968.2
20190426041829 17 113 0.0 0.0 0.00 0.00 0.00 42 968.3
20190426041329 17 113 0.0 11.3 0.00 0.00 0.00 42 968.3
20190426040829 17 90 11.3 11.3 0.00 0.00 0.00 43 968.3
20190426040329 17 90 9.7 12.9 0.00 0.00 0.00 43 968.4
20190426035829 17 90 11.3 11.3 0.00 0.00 0.00 43 968.4
20190426035329 17 68 9.7 12.9 0.00 0.00 0.00 43 968.4
20190426034829 17 113 0.0 11.3 0.00 0.00 0.00 43 968.4
20190426034329 17 90 12.9 12.9 0.00 0.00 0.00 43 968.4
20190426033829 17 113 0.0 11.3 0.00 0.00 0.00 43 968.4
20190426033329 17 113 11.3 14.5 0.00 0.00 0.00 43 968.5
20190426032829 17 90 1.6 3.2 0.00 0.00 0.00 43 968.6
20190426032329 16 135 9.7 11.3 0.00 0.00 0.00 43 968.5
20190426031829 16 113 0.0 4.8 0.00 0.00 0.00 43 968.6
20190426031329 17 90 3.2 12.9 0.00 0.00 0.00 43 968.6
20190426030829 16 113 12.9 12.9 0.00 0.00 0.00 43 968.6
20190426030329 17 90 9.7 11.3 0.00 0.00 0.00 43 968.7
20190426025829 17 113 8.0 8.0 0.00 0.00 0.00 43 968.7
20190426025329 16 113 0.0 11.3 0.00 0.00 0.00 43 968.8
20190426024829 16 113 0.0 4.8 0.00 0.00 0.00 44 968.9
20190426024329 16 113 0.0 9.7 0.00 0.00 0.00 44 968.8
20190426023829 16 113 4.8 4.8 0.00 0.00 0.00 44 969.0
20190426023329 16 90 1.6 11.3 0.00 0.00 0.00 44 969.0
20190426022829 16 68 0.0 3.2 0.00 0.00 0.00 45 969.1
20190426022329 16 113 1.6 9.7 0.00 0.00 0.00 44 969.1
20190426021829 16 90 9.7 9.7 0.00 0.00 0.00 44 969.1
20190426021329 16 90 0.0 3.2 0.00 0.00 0.00 44 969.2
20190426020829 16 90 3.2 3.2 0.00 0.00 0.00 44 969.1
20190426020329 16 90 0.0 0.0 0.00 0.00 0.00 44 969.2
20190426015830 16 68 0.0 9.7 0.00 0.00 0.00 44 969.2
20190426015329 16 68 9.7 9.7 0.00 0.00 0.00 44 969.2
20190426014829 16 113 0.0 0.0 0.00 0.00 0.00 44 969.3
20190426014329 16 90 0.0 0.0 0.00 0.00 0.00 44 969.3
20190426013829 16 135 0.0 4.8 0.00 0.00 0.00 44 969.3
20190426013329 16 113 0.0 11.3 0.00 0.00 0.00 45 969.3
20190426012829 16 113 0.0 1.6 0.00 0.00 0.00 45 969.3
20190426012329 16 113 1.6 1.6 0.00 0.00 0.00 45 969.4
20190426011829 16 113 0.0 0.0 0.00 0.00 0.00 45 969.3
20190426011329 16 113 0.0 11.3 0.00 0.00 0.00 45 969.4
20190426010829 16 113 0.0 0.0 0.00 0.00 0.00 44 969.4
20190426010329 16 113 0.0 0.0 0.00 0.00 0.00 44 969.4
20190426005829 16 113 0.0 0.0 0.00 0.00 0.00 44 969.4
20190426005329 16 113 0.0 0.0 0.00 0.00 0.00 44 969.5
20190426004829 16 90 0.0 1.6 0.00 0.00 0.00 44 969.5
20190426004329 16 113 3.2 3.2 0.00 0.00 0.00 43 969.5
20190426003829 16 158 0.0 4.8 0.00 0.00 0.00 43 969.6
20190426003329 16 135 4.8 4.8 0.00 0.00 0.00 43 969.5
20190426002829 16 113 6.4 6.4 0.00 0.00 0.00 43 969.5
20190426002329 17 158 0.0 1.6 0.00 0.00 0.00 43 969.6
20190426001829 17 68 1.6 1.6 0.00 0.00 0.00 43 969.6
20190426001329 16 90 0.0 9.7 0.00 0.00 0.00 43 969.7
20190426000831 16 90 9.7 9.7 0.00 0.00 0.00 44 969.8
20190426000329 16 158 0.0 0.0 0.00 0.00 0.00 44 969.8
20190425235829 16 90 0.0 0.0 0.00 0.00 0.00 44 969.7
20190425235329 16 135 0.0 0.0 0.00 0.00 0.00 44 969.7
20190425234829 16 113 0.0 11.3 0.00 0.00 0.00 45 969.6
20190425234329 16 135 11.3 11.3 0.00 0.00 0.00 45 969.7
20190425233829 16 135 0.0 0.0 0.00 0.00 0.00 45 969.8
20190425233329 16 113 0.0 8.0 0.00 0.00 0.00 45 969.7
20190425232829 15 135 8.0 8.0 0.00 0.00 0.00 45 969.7
20190425232329 16 113 0.0 0.0 0.00 0.00 0.00 45 969.9
20190425231829 16 135 0.0 0.0 0.00 0.00 0.00 44 970.0
20190425231329 16 158 0.0 0.0 0.00 0.00 0.00 44 970.0
20190425230829 16 158 0.0 3.2 0.00 0.00 0.00 44 970.0
20190425230329 16 135 3.2 3.2 0.00 0.00 0.00 44 970.0
20190425225829 16 158 0.0 6.4 0.00 0.00 0.00 44 970.1
20190425225329 16 113 0.0 0.0 0.00 0.00 0.00 43 970.0
20190425224829 16 158 0.0 0.0 0.00 0.00 0.00 43 970.1
20190425224329 16 135 0.0 0.0 0.00 0.00 0.00 42 970.0
20190425223829 16 158 0.0 0.0 0.00 0.00 0.00 42 970.0
20190425223329 17 158 0.0 0.0 0.00 0.00 0.00 42 969.9
20190425222829 17 158 0.0 1.6 0.00 0.00 0.00 41 969.9
20190425222329 17 158 0.0 6.4 0.00 0.00 0.00 41 969.9
20190425221829 17 90 0.0 6.4 0.00 0.00 0.00 41 969.9
20190425221329 17 158 6.4 6.4 0.00 0.00 0.00 41 969.9
20190425220829 17 135 4.8 4.8 0.00 0.00 0.00 41 969.9
20190425220329 17 135 0.0 6.4 0.00 0.00 0.00 41 969.9
20190425215829 17 135 0.0 0.0 0.00 0.00 0.00 41 969.9
20190425215329 17 158 0.0 11.3 0.00 0.00 0.00 41 969.8
20190425214829 17 135 0.0 0.0 0.00 0.00 0.00 41 969.9
20190425214329 17 113 0.0 0.0 0.00 0.00 0.00 40 969.8
20190425213829 17 135 0.0 6.4 0.00 0.00 0.00 40 969.8
20190425213329 17 158 1.6 3.2 0.00 0.00 0.00 40 969.9
20190425212829 17 158 0.0 0.0 0.00 0.00 0.00 40 969.9
20190425212329 17 135 0.0 12.9 0.00 0.00 0.00 40 969.8
20190425211829 17 158 12.9 12.9 0.00 0.00 0.00 39 969.8
20190425211329 17 135 0.0 0.0 0.00 0.00 0.00 39 969.9
20190425210829 17 90 0.0 3.2 0.00 0.00 0.00 39 969.7
20190425210329 17 135 3.2 3.2 0.00 0.00 0.00 39 969.7
20190425205829 17 135 0.0 11.3 0.00 0.00 0.00 39 969.8
20190425205329 18 158 11.3 11.3 0.00 0.00 0.00 39 969.8
20190425204829 18 158 6.4 9.7 0.00 0.00 0.00 38 969.7
20190425204329 17 158 0.0 8.0 0.00 0.00 0.00 39 969.7
20190425203829 17 135 0.0 6.4 0.00 0.00 0.00 38 969.9
20190425203329 18 135 0.0 0.0 0.00 0.00 0.00 38 969.9
20190425202829 18 135 0.0 8.0 0.00 0.00 0.00 38 969.9
20190425202329 18 113 8.0 8.0 0.00 0.00 0.00 38 969.8
20190425201829 18 113 0.0 4.8 0.00 0.00 0.00 38 969.7
20190425201329 18 113 3.2 3.2 0.00 0.00 0.00 38 969.7
20190425200829 17 90 0.0 11.3 0.00 0.00 0.00 39 969.6
20190425200329 17 113 0.0 0.0 0.00 0.00 0.00 39 969.7
20190425195829 17 113 0.0 0.0 0.00 0.00 0.00 39 969.6
20190425195329 17 113 0.0 0.0 0.00 0.00 0.00 40 969.6
20190425194829 17 90 0.0 0.0 0.00 0.00 0.00 40 969.6
20190425194329 17 113 0.0 0.0 0.00 0.00 0.00 40 969.5
20190425193829 17 113 0.0 0.0 0.00 0.00 0.00 40 969.6
20190425193329 18 113 0.0 0.0 0.00 0.00 0.00 39 969.6
20190425192829 18 113 0.0 0.0 0.00 0.00 0.00 39 969.5
20190425192329 18 113 0.0 0.0 0.00 0.00 0.00 39 969.5
20190425191829 19 113 0.0 0.0 0.00 0.00 0.00 38 969.4
20190425191329 19 113 0.0 0.0 0.00 0.00 0.00 37 969.5
20190425190829 19 113 0.0 0.0 0.00 0.00 0.00 38 969.4
20190425190329 19 90 3.2 3.2 0.00 0.00 0.00 38 969.4
20190425185829 19 68 1.6 8.0 0.00 0.00 0.00 39 969.4
20190425185329 19 90 8.0 8.0 0.00 0.00 0.00 40 969.3
20190425184829 20 113 3.2 3.2 0.00 0.00 0.00 41 969.3
20190425184329 20 90 0.0 0.0 0.00 0.00 0.00 40 969.3
20190425183829 20 90 0.0 0.0 0.00 0.00 0.00 40 969.5
20190425183329 20 68 0.0 0.0 0.00 0.00 0.00 38 969.6
20190425182829 20 113 0.0 0.0 0.00 0.00 0.00 37 969.7
20190425182329 21 113 0.0 3.2 0.00 0.00 0.00 38 969.5
20190425181829 21 90 0.0 0.0 0.00 0.00 0.00 38 969.5
20190425181329 21 113 0.0 11.3 0.00 0.00 0.00 37 969.4
20190425180829 21 90 11.3 11.3 0.00 0.00 0.00 37 969.4
20190425180329 21 113 0.0 0.0 0.00 0.00 0.00 36 969.5
20190425175829 21 135 0.0 3.2 0.00 0.00 0.00 35 969.4
20190425175329 22 135 0.0 0.0 0.00 0.00 0.00 35 969.4
20190425174829 22 158 8.0 8.0 0.00 0.00 0.00 35 969.4
20190425174329 22 135 0.0 9.7 0.00 0.00 0.00 34 969.4
20190425173829 23 90 9.7 9.7 0.00 0.00 0.00 34 969.4
20190425173329 23 113 0.0 9.7 0.00 0.00 0.00 33 969.3
20190425172829 23 158 9.7 9.7 0.00 0.00 0.00 33 969.4
20190425172329 23 158 3.2 9.7 0.00 0.00 0.00 33 969.4
20190425171829 23 158 9.7 9.7 0.00 0.00 0.00 33 969.4
20190425171329 23 113 0.0 0.0 0.00 0.00 0.00 33 969.3
20190425170829 23 135 0.0 8.0 0.00 0.00 0.00 33 969.3
20190425170329 24 45 0.0 3.2 0.00 0.00 0.00 32 969.3
20190425165829 24 68 3.2 3.2 0.00 0.00 0.00 32 969.3
20190425165329 23 113 0.0 0.0 0.00 0.00 0.00 33 969.4
20190425164829 23 68 0.0 0.0 0.00 0.00 0.00 32 969.3
20190425164329 23 113 0.0 0.0 0.00 0.00 0.00 32 969.4
20190425163828 23 113 0.0 0.0 0.00 0.00 0.00 32 969.5
20190425163329 23 45 0.0 0.0 0.00 0.00 0.00 31 969.5
20190425162829 23 113 0.0 0.0 0.00 0.00 0.00 31 969.4
20190425162328 23 113 0.0 9.7 0.00 0.00 0.00 31 969.4
20190425161829 23 90 8.0 8.0 0.00 0.00 0.00 30 969.4
20190425161329 23 68 8.0 8.0 0.00 0.00 0.00 30 969.5
20190425160829 23 68 0.0 0.0 0.00 0.00 0.00 30 969.5
20190425160329 24 68 11.3 11.3 0.00 0.00 0.00 30 969.4
20190425155829 24 113 0.0 0.0 0.00 0.00 0.00 30 969.5
20190425155417 24 68 0.0 9.7 0.00 0.00 0.00 30 969.6
20190425154829 24 135 0.0 0.0 0.00 0.00 0.00 29 969.4
20190425154329 24 113 0.0 11.3 0.00 0.00 0.00 29 969.5
20190425153828 24 90 11.3 11.3 0.00 0.00 0.00 29 969.5
20190425153329 25 90 11.3 11.3 0.00 0.00 0.00 28 969.6
20190425152829 25 135 0.0 9.7 0.00 0.00 0.00 28 969.5
20190425152329 25 90 3.2 8.0 0.00 0.00 0.00 28 969.6
20190425151829 25 135 11.3 11.3 0.00 0.00 0.00 28 969.5
20190425151329 25 135 0.0 9.7 0.00 0.00 0.00 28 969.6
20190425150829 25 90 9.7 9.7 0.00 0.00 0.00 28 969.7
20190425150329 25 90 9.7 9.7 0.00 0.00 0.00 28 969.8
20190425145829 25 90 9.7 11.3 0.00 0.00 0.00 28 969.7
20190425145329 25 90 9.7 12.9 0.00 0.00 0.00 28 969.8
20190425144829 25 68 0.0 8.0 0.00 0.00 0.00 28 970.0
20190425144329 25 90 6.4 6.4 0.00 0.00 0.00 28 970.0
20190425143829 25 68 0.0 11.3 0.00 0.00 0.00 28 969.9
20190425143329 26 113 3.2 11.3 0.00 0.00 0.00 27 970.0
20190425142829 26 68 11.3 11.3 0.00 0.00 0.00 27 970.0
20190425142328 26 90 6.4 6.4 0.00 0.00 0.00 27 970.0
20190425141829 26 113 6.4 6.4 0.00 0.00 0.00 27 970.1
20190425141329 26 113 0.0 8.0 0.00 0.00 0.00 27 970.1
20190425140829 26 113 8.0 8.0 0.00 0.00 0.00 28 970.1
20190425140329 25 113 0.0 12.9 0.00 0.00 0.00 28 970.2
20190425135828 25 158 4.8 4.8 0.00 0.00 0.00 29 970.3
20190425135329 25 45 0.0 11.3 0.00 0.00 0.00 28 970.2
20190425134829 25 90 11.3 11.3 0.00 0.00 0.00 28 970.4
20190425134329 25 158 3.2 11.3 0.00 0.00 0.00 28 970.5
20190425133829 26 113 11.3 16.1 0.00 0.00 0.00 28 970.6
20190425133329 26 113 0.0 11.3 0.00 0.00 0.00 28 970.6
20190425132829 26 90 1.6 9.7 0.00 0.00 0.00 27 970.6
20190425132329 26 113 9.7 9.7 0.00 0.00 0.00 28 970.7
20190425131829 26 158 9.7 11.3 0.00 0.00 0.00 27 970.7
20190425131329 26 158 11.3 11.3 0.00 0.00 0.00 28 970.8
20190425130828 26 135 0.0 11.3 0.00 0.00 0.00 28 970.8
20190425130328 26 135 9.7 9.7 0.00 0.00 0.00 28 970.8
20190425125829 26 113 0.0 12.9 0.00 0.00 0.00 28 970.8
20190425125329 26 90 9.7 11.3 0.00 0.00 0.00 29 971.0
20190425124829 26 135 0.0 0.0 0.00 0.00 0.00 30 971.0
20190425124329 26 135 0.0 9.7 0.00 0.00 0.00 30 971.0
20190425123829 26 113 9.7 11.3 0.00 0.00 0.00 31 971.1
20190425123329 26 180 8.0 12.9 0.00 0.00 0.00 31 971.2
20190425122828 25 135 11.3 11.3 0.00 0.00 0.00 30 971.1
20190425122329 25 135 1.6 6.4 0.00 0.00 0.00 31 971.2
20190425121829 25 135 6.4 9.7 0.00 0.00 0.00 31 971.2
20190425121329 25 158 9.7 9.7 0.00 0.00 0.00 31 971.3
20190425120828 25 113 0.0 9.7 0.00 0.00 0.00 30 971.3
20190425120329 25 135 9.7 9.7 0.00 0.00 0.00 30 971.3
20190425115829 26 113 9.7 11.3 0.00 0.00 0.00 29 971.3
20190425115328 26 68 4.8 9.7 0.00 0.00 0.00 30 971.4
20190425114828 26 45 6.4 6.4 0.00 0.00 0.00 29 971.4
20190425114329 25 158 0.0 0.0 0.00 0.00 0.00 30 971.4